logo tempoitalia

Diretta Meteo Palermo-Punta Raisi, Italiasabato 21 maggio ore 11:20

Mappa
Sereno 21 °C Sereno 24 Ore: T.min 15 T.max 23
Ponente Nord/Nord-Est Km/h 22.2 Punto di rugiada: 16 °C Umidità: 73% Visibilità: 10 Km
Il sole sorge alle: 05:50 Il sole tramonta alle: 20:17
21 Maggio 2022 11:20 tempo osservato: Sereno Sereno 21 73 1023 vento: Nord N/NE 22.2
21 Maggio 2022 10:50 tempo osservato: Sereno Sereno 21 68 1023 vento: Nord N/NE 20.3
21 Maggio 2022 10:20 tempo osservato: Sereno Sereno 20 77 1023 vento: Nord NO 9.3
21 Maggio 2022 09:50 tempo osservato: Sereno Sereno 19 77 1023 vento: Nord NO 7.4
21 Maggio 2022 09:20 tempo osservato: Sereno Sereno 19 77 1023 vento: Nord N 5.5
21 Maggio 2022 08:50 tempo osservato: Sereno Sereno 18 77 1023 vento: Nord N 5.5
21 Maggio 2022 08:20 tempo osservato: Sereno Sereno 18 77 1023 vento: Nord N 3.7
21 Maggio 2022 07:50 tempo osservato: Sereno Sereno 18 72 1023 vento: Nord N 5.5
21 Maggio 2022 07:20 tempo osservato: Sereno Sereno 17 77 1023 vento: Nord S 7.4
21 Maggio 2022 06:50 tempo osservato: Sereno Sereno 16 82 1023 vento: Nord N 3.7
21 Maggio 2022 06:20 tempo osservato: Sereno Sereno 16 77 1023 vento: Nord N 5.5
21 Maggio 2022 05:50 tempo osservato: Sereno Sereno 15 76 1023 vento: Nord N 1.8
21 Maggio 2022 05:20 tempo osservato: Sereno Sereno 15 76 1023 vento: Nord N 1.8
21 Maggio 2022 04:50 tempo osservato: Sereno Sereno 15 76 1023 vento: Nord N 1.8
21 Maggio 2022 04:20 tempo osservato: Sereno Sereno 16 72 1024 vento: Nord N 3.7
21 Maggio 2022 03:50 tempo osservato: Sereno Sereno 15 76 1024 vento: Nord S 7.4
21 Maggio 2022 03:20 tempo osservato: Sereno Sereno 15 76 1024 vento: Nord S 7.4
21 Maggio 2022 02:50 tempo osservato: Sereno Sereno 16 72 1024 vento: Nord S/SE 7.4
21 Maggio 2022 02:20 tempo osservato: Sereno Sereno 16 77 1024 vento: Nord S/SE 7.4
21 Maggio 2022 01:50 tempo osservato: Sereno Sereno 18 67 1024 vento: Nord N 5.5
21 Maggio 2022 01:20 tempo osservato: Sereno Sereno 17 72 1025 vento: Nord S 7.4
21 Maggio 2022 00:50 tempo osservato: Sereno Sereno 18 72 1025 vento: Nord S 7.4
21 Maggio 2022 00:20 tempo osservato: Sereno Sereno 18 72 1025 vento: Nord S 7.4
20 Maggio 2022 23:50 tempo osservato: Sereno Sereno 19 77 1025 vento: Nord SE 7.4
20 Maggio 2022 23:20 tempo osservato: Sereno Sereno 19 82 1025 vento: Nord NE 14.8
20 Maggio 2022 22:50 tempo osservato: Sereno Sereno 20 77 1025 vento: Nord NE 16.7
20 Maggio 2022 22:20 tempo osservato: Sereno Sereno 20 72 1026 vento: Nord NE 14.8
20 Maggio 2022 21:50 tempo osservato: Sereno Sereno 20 72 1025 vento: Nord NE 18.5
20 Maggio 2022 21:20 tempo osservato: Sereno Sereno 20 77 1026 vento: Nord N/NE 16.7
20 Maggio 2022 20:50 tempo osservato: Sereno Sereno 21 73 1026 vento: Nord N/NE 18.5
20 Maggio 2022 20:20 tempo osservato: Sereno Sereno 21 73 1026 vento: Nord N/NE 16.7
20 Maggio 2022 19:50 tempo osservato: Sereno Sereno 21 73 1026 vento: Nord N/NE 18.5
20 Maggio 2022 19:20 tempo osservato: Sereno Sereno 21 73 1026 vento: Nord N 16.7
20 Maggio 2022 18:50 tempo osservato: Sereno Sereno 22 64 1026 vento: Nord N 11.1
20 Maggio 2022 18:20 tempo osservato: Sereno Sereno 22 68 1026 vento: Nord N 13
20 Maggio 2022 17:50 tempo osservato: Sereno Sereno 22 68 1026 vento: Nord N 14.8
20 Maggio 2022 17:20 tempo osservato: Sereno Sereno 22 68 1027 vento: Nord N 13
20 Maggio 2022 16:50 tempo osservato: Sereno Sereno 22 68 1027 vento: Nord N 14.8
20 Maggio 2022 16:20 tempo osservato: Sereno Sereno 22 68 1027 vento: Nord N 14.8
20 Maggio 2022 15:50 tempo osservato: Sereno Sereno 23 68 1027 vento: Nord N/NO 14.8
20 Maggio 2022 15:20 tempo osservato: Sereno Sereno 22 68 1027 vento: Nord N 14.8
20 Maggio 2022 14:50 tempo osservato: Sereno Sereno 23 68 1028 vento: Nord N/NO 11.1
20 Maggio 2022 14:20 tempo osservato: Sereno Sereno 22 73 1028 vento: Nord N/NO 14.8
20 Maggio 2022 13:50 tempo osservato: Sereno Sereno 22 78 1028 vento: Nord N/NO 11.1
20 Maggio 2022 13:20 tempo osservato: Sereno Sereno 21 82 1028 vento: Nord N/NO 11.1
20 Maggio 2022 12:50 tempo osservato: Sereno Sereno 22 78 1028 vento: Nord N 13
20 Maggio 2022 12:20 tempo osservato: Sereno Sereno 22 78 1028 vento: Nord N/NO 11.1
20 Maggio 2022 11:50 tempo osservato: Sereno Sereno 21 82 1028 vento: Nord NO 9.3